Regional Weather Roundup
Issued by NWS Little Rock, AR

Home | Current Version | Previous Version | Graphics & Text | Print | Product List | Glossary On
Versions: 1 2 3 4 5 6 7 8 9 10 11 12 13 14 15 16 17 18 19 20 21 22 23 24 25 26 27 28 29 30 31 32 33 34 35 36 37 38 39 40 41 42 43 44 45 46 47 48 49 50
000
ASUS44 KLZK 301605
RWRLZK

WEATHER ROUNDUP FOR ARKANSAS
NATIONAL WEATHER SERVICE LITTLE ROCK AR
1000 AM CST FRI JAN 30 2015

NOTE: "FAIR" INDICATES FEW OR NO CLOUDS BELOW 12,000 FEET WITH NO
SIGNIFICANT WEATHER AND/OR OBSTRUCTIONS TO VISIBILITY.

ARZ001-003-010-029-301700-
NORTHWEST ARKANSAS

CITY           SKY/WX    TMP DP  RH WIND       PRES   REMARKS
FAYETTEVILLE   MOSUNNY   33  26  75 E8        30.52R WCI  26
FORT SMITH     PTSUNNY   38  28  67 E3        30.55R
HARRISON       SUNNY     33  24  69 N5        30.52R WCI  29
BENTONVILLE    SUNNY     36  25  64 E8        30.52R
ROGERS         SUNNY     34  24  67 E9        30.51S WCI  27
SILOAM SPGS    MOSUNNY  N/A N/A N/A SE6       30.53S
HIGHFILL       MOSUNNY   33  25  72 E5        30.52R WCI  29
SPRINGDALE     SUNNY     34  27  75 E9        30.53R WCI  26
$$

ARZ004-005-016-301700-
NORTH CENTRAL ARKANSAS

CITY           SKY/WX    TMP DP  RH WIND       PRES   REMARKS
BATESVILLE     SUNNY     37  25  60 N6        30.56R
FLIPPIN        SUNNY     34  21  60 E5        30.54S WCI  30
MTN HOME       SUNNY     33  24  69 NE6       30.53R WCI  28
$$

ARZ040-041-301700-
WEST CENTRAL ARKANSAS

CITY           SKY/WX    TMP DP  RH WIND       PRES   REMARKS
MENA           PTSUNNY   43  32  65 E6        30.52R
MOUNT IDA      PTSUNNY   40  29  64 CALM      30.51R
$$

ARZ009-017-025-026-028-301700-
NORTHEAST ARKANSAS

CITY           SKY/WX    TMP DP  RH WIND       PRES   REMARKS
CORNING        FAIR      36  27  69 NE13      30.57R
JONESBORO      SUNNY     38  29  70 NE13G18   30.55R
NEWPORT        SUNNY     38  28  67 N14       30.57R
WALNUT RIDGE   SUNNY     37  27  65 N9        30.56R
BLYTHEVILLE    SUNNY     41  28  60 N15       30.55R
NW BLYTHEVILLE MOSUNNY   39  28  65 NE15      30.55R
$$

ARZ022-023-033-042-044-301700-
CENTRAL ARKANSAS

CITY           SKY/WX    TMP DP  RH WIND       PRES   REMARKS
LITTLE ROCK    PTSUNNY   42  26  53 NE7       30.56R
N LITTLE ROCK  PTSUNNY   39  30  68 N6        30.56R
JACKSONVILLE   SUNNY     40  27  60 NE8       30.55R
SEARCY         SUNNY     41  28  60 NE13      30.56R
HOT SPRINGS    PTSUNNY   41  27  57 NE8       30.55R
RUSSELLVILLE   MOSUNNY   38  27  64 CALM      30.55R
CLINTON        FAIR      39  25  56 NW5       30.56S
$$

ARZ036-301700-
EAST ARKANSAS

CITY           SKY/WX    TMP DP  RH WIND       PRES   REMARKS
WEST MEMPHIS   SUNNY     41  29  62 NE15      30.52R
$$

ARZ050-053-066-070-073-301700-
SOUTHWEST ARKANSAS

CITY           SKY/WX    TMP DP  RH WIND       PRES   REMARKS
ARKADELPHIA    FAIR      41  30  65 NE10      30.57R
CAMDEN         SUNNY     43  28  56 MISG      30.54S
TEXARKANA      SUNNY     42  29  59 NE14G21   30.52S
EL DORADO      SUNNY     44  29  55 NE10      30.52S
DE QUEEN       SUNNY     43  32  65 E6        30.52R
$$

ARZ056-057-069-301700-
SOUTHEAST ARKANSAS

CITY           SKY/WX    TMP DP  RH WIND       PRES   REMARKS
PINE BLUFF     SUNNY     41  29  62 NE12      30.55R
STUTTGART      SUNNY     39  28  65 NE9       30.55R
MONTICELLO     SUNNY     44  30  57 NE14      30.52S

$$





USA.gov is the U.S. government's official web portal to all federal, state and local government web resources and services.